Погода в Кайман-Браке

Каймановы острова     19°43′06″N   79°47′33″W
темп.,
°C
ветер,
м/с
пор.,
м/с
влажн.,
%
обл.,
%
осадки,
мм/ч
давл.,
гПа
погр.,
м
9 августа, вт
вт901:00+29вюв797723 1.8 1014925
04:00+29всв677491 0.3 1013901
07:00+29всв777624 0.3 1015863
10:00+29в78775 0.0 1016938
13:00+29всв778037 0.0 1015806
16:00+29в67785 0.0 1014697
19:00+29юв567886 0.0 1015514
22:00+29вюв5675100 0.0 1016592
10 августа, ср
ср1001:00+29всв5680100 0.0 1015661
04:00+28св5581100 0.4 1015599
07:00+28всв888252 0.8 1016772
10:00+29всв667681 0.1 1018748
13:00+29всв777730 0.1 1017786
16:00+29всв6772100 0.0 1015587
19:00+29св3571100 0.0 1015482
22:00+29всв51072100 0.0 10161060
11 августа, чт
чт1101:00+29всв1010775 0.0 1015994
04:00+28всв887319 0.1 10141099
07:00+28всв9975100 0.4 1015906
10:00+28всв88742 0.3 1016915
13:00+28всв777211 0.4 10151031
16:00+28в55725 0.0 1013803
19:00+28вюв33702 0.0 1013447
22:00+28в45734 0.0 1015717
12 августа, пт
пт1201:00+28всв55745 0.1 1014761
04:00+28всв55730 0.0 1014897
07:00+28в55712 0.0 1014946
10:00+28всв44726 0.0 1015852
13:00+28всв33725 0.0 1015769
16:00+28в22700 0.0 1013712
19:00+28в11701 0.0 1014523
22:00+28юв12725 0.0 1015546
13 августа, сб
сб1301:00+28св2375100 0.1 1014494
04:00+28св4476100 0.0 1013658
07:00+28св34720 0.0 1014654
10:00+28всв226897 0.0 1015664
13:00+29в226757 0.0 1015852
16:00+29в2267100 0.0 1014722
19:00+29ю116713 0.0 1014576
22:00+29ю2269100 0.0 1015582